#timestamp,LO_Frequency,Hit,StdDev 
1617458955.6,286047005.7,P
1617458975.4,286047005.2,P
1617458995.2,286047007.3,P
1617459015.1,286047004.5,Y
1617459016.0,286047004.5,P
1617459035.8,286047011.9,P
1617459055.7,286046998.6,N
1617459075.5,286046998.4,N
1617459095.3,286046998.2,N
1617459115.2,286046998.5,N
1617459135.0,286046998.4,N
1617459135.9,286046998.4,N
1617459155.8,286046998.1,N
1617459175.6,286047002.7,N
1617459195.4,286047000.4,N
1617459215.3,286047001.1,N
1617459235.1,286046999.3,N
1617459255.8,286047000.6,N
1617459275.7,286047000.5,N
1617459295.5,286047003.9,N
1617459315.4,286047004.1,N
1617459335.2,286047001.8,N
1617459355.0,286047003.9,N
1617459355.9,286047003.9,N
1617459375.8,286047004.1,N
1617459395.6,286047006.0,N
1617459415.4,286047004.1,N
1617459435.3,286047001.7,N
1617459455.1,286047002.5,N
1617459475.9,286047004.4,N
1617459495.7,286047004.3,N
1617459515.5,286047001.8,N
1617459535.4,286047003.4,N
1617459555.2,286047006.0,N
1617459575.0,286047001.3,N
1617459575.9,286047001.3,N
1617459595.8,286047003.8,N
1617459615.6,286047004.2,N
1617459635.5,286047001.9,N
1617459655.3,286047001.4,N
1617459675.1,286047001.3,N
1617459695.9,286047001.8,N
1617459715.7,286047001.4,N
1617459735.5,286047002.0,N
1617459755.4,286047000.6,N
1617459775.2,286047004.3,N
1617459795.1,286047004.3,N
1617459796.0,286047004.3,N
1617459815.8,286047004.3,N
1617459835.6,286047003.7,N
1617459855.5,286047005.9,Y
1617459875.3,286047000.8,P
1617459895.1,286046998.4,N
1617459915.9,286046999.0,N
1617459935.7,286046998.1,N
1617459955.6,286046999.0,N
1617459975.4,286046997.0,N
1617459995.2,286046997.6,N
1617460015.1,286046999.1,N
1617460016.0,286046999.1,N
1617460035.8,286046998.9,N
1617460055.6,286046998.4,N
1617460075.5,286046998.9,N
1617460095.3,286047001.2,N
1617460115.2,286046998.4,N
1617460135.9,286047000.8,N
1617460155.7,286046999.8,N
1617460175.6,286046998.7,N
1617460195.4,286046998.7,N
1617460215.2,286047001.0,N
1617460235.1,286047000.0,N
1617460236.0,286047000.0,N
1617460255.8,286047002.6,N
1617460275.7,286047000.1,N
1617460295.5,286047002.7,N
1617460315.3,286046999.9,N
1617460335.2,286047000.4,N
1617460355.0,286046999.8,N
1617460355.9,286046999.8,N
1617460375.8,286047002.7,N
1617460395.6,286047000.6,N
1617460415.4,286047001.1,N
1617460435.3,286047000.2,N
1617460455.1,286047002.8,N
1617460475.8,286047000.2,N
1617460495.7,286047000.2,N
1617460515.5,286047000.7,N
1617460535.4,286047000.6,N
1617460555.2,286047000.1,N
1617460575.0,286047003.7,Y
1617460575.9,286047003.7,P
1617460595.8,286047003.2,N
1617460615.6,286047004.0,N
1617460635.4,286047003.2,N
1617460655.3,286047002.7,N
1617460675.1,286046998.1,N
1617460695.9,286046998.6,N
1617460715.7,286047000.8,N
1617460735.5,286046998.3,N
1617460755.4,286046999.7,N
1617460775.2,286047001.7,N
1617460795.0,286047002.8,N
1617460795.9,286047002.8,N
1617460815.8,286046998.1,N
1617460835.6,286046998.2,N
1617460855.5,286047001.2,N
1617460875.3,286047001.0,N
1617460895.1,286046999.7,N
1617460915.9,286047000.5,N
1617460935.7,286047001.3,N
1617460955.5,286047002.1,N
1617460975.4,286047002.7,N
1617460995.2,286047002.2,N
1617461015.1,286047002.2,N
1617461016.0,286047002.2,N
1617461035.8,286047002.4,N
1617461055.6,286046999.7,N
1617461075.5,286047000.1,N
1617461095.3,286046999.9,N
1617461115.1,286047002.2,N
1617461135.9,286047003.9,N
1617461155.7,286047003.7,N
1617461175.6,286047004.2,N
1617461195.4,286047002.2,N
1617461215.2,286047002.4,N
1617461235.1,286047001.8,N
1617461236.0,286047001.8,N
1617461255.8,286047001.7,N
1617461275.6,286047001.8,N
1617461295.5,286047002.2,N
1617461315.3,286047004.2,N
1617461335.2,286047004.0,N
1617461355.9,286047004.3,N
1617461375.7,286047003.6,N
1617461395.6,286047004.0,N
1617461415.4,286047003.8,N
1617461435.2,286047006.0,Y
1617461455.1,286047003.7,P
1617461456.0,286047003.7,P
1617461475.8,286047004.1,P
1617461495.7,286047004.3,Y
1617461515.5,286046998.3,P
1617461535.3,286046998.3,N
1617461555.2,286046998.7,N
1617461575.0,286046998.9,N
1617461575.9,286046998.9,N
1617461595.8,286047000.8,N
1617461615.6,286047000.0,N
1617461635.4,286047000.0,N
1617461655.3,286047001.0,N
1617461675